TimeCST,TemperatureF,Dew PointF,Humidity,Sea Level PressureIn,VisibilityMPH,Wind Direction,Wind SpeedMPH,Gust SpeedMPH,PrecipitationIn,Events,Conditions,WindDirDegrees,DateUTC
12:14 AM,12.2,6.8,79,30.17,10.0,NNE,11.5,-,N/A,Snow,Light Snow,20,2012-12-09 06:14:00
12:34 AM,12.2,6.8,79,30.17,10.0,NNE,11.5,-,N/A,Snow,Light Snow,20,2012-12-09 06:34:00
12:54 AM,12.2,6.8,79,30.18,10.0,NNE,12.7,-,N/A,,Overcast,20,2012-12-09 06:54:00
1:14 AM,10.4,6.8,85,30.18,10.0,NNE,12.7,-,N/A,,Overcast,20,2012-12-09 07:14:00
1:34 AM,10.4,5.0,79,30.19,10.0,North,10.4,-,N/A,Snow,Light Snow,10,2012-12-09 07:34:00
1:54 AM,10.4,3.2,73,30.19,10.0,NNE,12.7,-,N/A,,Overcast,20,2012-12-09 07:54:00
2:14 AM,8.6,3.2,79,30.20,10.0,North,11.5,-,N/A,,Overcast,360,2012-12-09 08:14:00
2:34 AM,6.8,1.4,79,30.21,10.0,North,12.7,-,N/A,,Mostly Cloudy,360,2012-12-09 08:34:00
2:55 AM,6.8,-0.4,72,30.22,10.0,North,12.7,-,N/A,,Mostly Cloudy,360,2012-12-09 08:55:00
3:14 AM,5.0,-0.4,78,30.22,10.0,North,11.5,-,N/A,,Overcast,10,2012-12-09 09:14:00
3:34 AM,5.0,-0.4,78,30.22,10.0,North,13.8,-,N/A,,Overcast,10,2012-12-09 09:34:00
3:55 AM,3.2,-2.2,78,30.22,10.0,North,12.7,-,N/A,,Overcast,360,2012-12-09 09:55:00
4:14 AM,3.2,-2.2,78,30.22,10.0,North,13.8,-,N/A,,Overcast,10,2012-12-09 10:14:00
4:34 AM,1.4,-4.0,78,30.23,10.0,North,12.7,-,N/A,,Mostly Cloudy,360,2012-12-09 10:34:00
4:55 AM,-0.4,-5.8,78,30.24,10.0,North,11.5,-,N/A,,Scattered Clouds,360,2012-12-09 10:55:00
5:14 AM,-0.4,-7.6,72,30.24,10.0,North,11.5,-,N/A,,Clear,360,2012-12-09 11:14:00
5:34 AM,-2.2,-7.6,78,30.25,10.0,North,13.8,-,N/A,,Clear,360,2012-12-09 11:34:00
5:55 AM,-2.2,-7.6,78,30.26,10.0,North,11.5,-,N/A,,Clear,10,2012-12-09 11:55:00
6:14 AM,-4.0,-9.4,78,30.26,10.0,North,10.4,-,N/A,,Clear,10,2012-12-09 12:14:00
6:34 AM,-4.0,-9.4,78,30.27,10.0,North,12.7,-,N/A,,Clear,360,2012-12-09 12:34:00
6:54 AM,-5.8,-11.2,77,30.28,10.0,North,10.4,-,N/A,,Clear,360,2012-12-09 12:54:00
7:14 AM,-5.8,-11.2,77,30.29,10.0,North,10.4,-,N/A,,Clear,360,2012-12-09 13:14:00
7:34 AM,-5.8,-11.2,77,30.30,10.0,North,10.4,-,N/A,,Clear,10,2012-12-09 13:34:00
7:54 AM,-9.4,-14.8,77,30.30,10.0,NNE,6.9,-,N/A,,Clear,20,2012-12-09 13:54:00
8:14 AM,-9.4,-16.6,71,30.31,10.0,NNE,5.8,-,N/A,,Clear,20,2012-12-09 14:14:00
8:34 AM,-9.4,-14.8,77,30.31,10.0,North,6.9,-,N/A,,Clear,10,2012-12-09 14:34:00
8:54 AM,-7.6,-14.8,71,30.31,10.0,North,8.1,-,N/A,,Clear,10,2012-12-09 14:54:00
9:34 AM,-5.8,-11.2,77,30.32,10.0,North,8.1,-,N/A,,Clear,360,2012-12-09 15:34:00
9:54 AM,-2.2,-9.4,71,30.32,10.0,North,8.1,-,N/A,,Clear,360,2012-12-09 15:54:00
10:15 AM,-2.2,-7.6,78,30.32,10.0,North,10.4,-,N/A,,Clear,10,2012-12-09 16:15:00
10:34 AM,-0.4,-5.8,78,30.32,10.0,North,11.5,-,N/A,,Clear,10,2012-12-09 16:34:00
10:54 AM,-0.4,-5.8,78,30.32,10.0,North,9.2,-,N/A,,Clear,10,2012-12-09 16:54:00
11:15 AM,1.4,-5.8,72,30.32,10.0,North,8.1,-,N/A,,Clear,360,2012-12-09 17:15:00
11:34 AM,3.2,-2.2,78,30.31,10.0,North,10.4,-,N/A,,Clear,360,2012-12-09 17:34:00
11:54 AM,3.2,-2.2,78,30.31,10.0,North,9.2,-,N/A,,Clear,10,2012-12-09 17:54:00
12:15 PM,3.2,-2.2,78,30.30,10.0,North,9.2,-,N/A,,Clear,350,2012-12-09 18:15:00
12:34 PM,3.2,-2.2,78,30.30,10.0,North,9.2,-,N/A,,Clear,360,2012-12-09 18:34:00
12:54 PM,3.2,-2.2,78,30.29,10.0,North,9.2,-,N/A,,Clear,350,2012-12-09 18:54:00
1:15 PM,3.2,-2.2,78,30.28,10.0,NNW,11.5,-,N/A,,Clear,340,2012-12-09 19:15:00
1:34 PM,5.0,-2.2,72,30.27,10.0,North,10.4,-,N/A,,Clear,360,2012-12-09 19:34:00
1:54 PM,5.0,-2.2,72,30.26,10.0,North,9.2,-,N/A,,Clear,350,2012-12-09 19:54:00
2:14 PM,3.2,-2.2,78,30.25,10.0,NNW,9.2,-,N/A,,Clear,340,2012-12-09 20:14:00
2:34 PM,3.2,-2.2,78,30.25,10.0,North,12.7,-,N/A,,Clear,350,2012-12-09 20:34:00
2:54 PM,3.2,-2.2,78,30.25,10.0,North,10.4,-,N/A,,Clear,350,2012-12-09 20:54:00
3:14 PM,3.2,-4.0,72,30.25,10.0,North,10.4,-,N/A,,Clear,350,2012-12-09 21:14:00
3:34 PM,1.4,-5.8,72,30.25,10.0,North,5.8,-,N/A,,Clear,360,2012-12-09 21:34:00
3:54 PM,1.4,-5.8,72,30.24,10.0,North,4.6,-,N/A,,Clear,360,2012-12-09 21:54:00
4:14 PM,-0.4,-7.6,72,30.24,10.0,North,5.8,-,N/A,,Clear,350,2012-12-09 22:14:00
4:34 PM,-2.2,-9.4,71,30.24,10.0,NNW,8.1,-,N/A,,Clear,340,2012-12-09 22:34:00
4:54 PM,-4.0,-9.4,78,30.24,10.0,NNW,6.9,-,N/A,,Clear,340,2012-12-09 22:54:00
5:14 PM,-2.2,-7.6,78,30.24,10.0,North,8.1,-,N/A,,Clear,350,2012-12-09 23:14:00
5:34 PM,-2.2,-9.4,71,30.24,10.0,NNW,8.1,-,N/A,,Clear,340,2012-12-09 23:34:00
5:54 PM,-4.0,-9.4,78,30.24,10.0,NNW,5.8,-,N/A,,Clear,330,2012-12-09 23:54:00
6:14 PM,-2.2,-7.6,78,30.24,10.0,NW,6.9,-,N/A,,Clear,320,2012-12-10 00:14:00
6:34 PM,-5.8,-11.2,77,30.24,10.0,NNW,6.9,-,N/A,,Clear,330,2012-12-10 00:34:00
6:54 PM,-7.6,-13.0,77,30.24,10.0,WNW,4.6,-,N/A,,Clear,290,2012-12-10 00:54:00
7:14 PM,-5.8,-11.2,77,30.24,10.0,WNW,4.6,-,N/A,,Clear,290,2012-12-10 01:14:00
7:34 PM,-5.8,-11.2,77,30.23,10.0,WNW,5.8,-,N/A,,Clear,300,2012-12-10 01:34:00
7:54 PM,-7.6,-13.0,77,30.23,10.0,WNW,5.8,-,N/A,,Clear,290,2012-12-10 01:54:00
8:14 PM,-7.6,-14.8,71,30.22,10.0,WNW,4.6,-,N/A,,Clear,290,2012-12-10 02:14:00
8:34 PM,-9.4,-14.8,77,30.21,10.0,NW,4.6,-,N/A,,Clear,310,2012-12-10 02:34:00
8:54 PM,-9.4,-14.8,77,30.20,10.0,WNW,4.6,-,N/A,,Clear,290,2012-12-10 02:54:00
9:14 PM,-9.4,-14.8,77,30.20,10.0,WNW,4.6,-,N/A,,Clear,290,2012-12-10 03:14:00
9:34 PM,-11.2,-16.6,77,30.18,10.0,WNW,3.5,-,N/A,,Clear,300,2012-12-10 03:34:00
9:54 PM,-11.2,-16.6,77,30.17,10.0,Calm,Calm,-,N/A,,Clear,0,2012-12-10 03:54:00
10:14 PM,-13.0,-18.4,77,30.17,10.0,Calm,Calm,-,N/A,,Clear,0,2012-12-10 04:14:00
10:35 PM,-11.2,-18.4,70,30.16,10.0,Calm,Calm,-,N/A,,Clear,0,2012-12-10 04:35:00
10:54 PM,-13.0,-18.4,77,30.15,10.0,Calm,Calm,-,N/A,,Clear,0,2012-12-10 04:54:00
11:14 PM,-13.0,-20.2,70,30.15,10.0,West,5.8,-,N/A,,Clear,280,2012-12-10 05:14:00
11:35 PM,-13.0,-18.4,77,30.14,10.0,West,4.6,-,N/A,,Clear,280,2012-12-10 05:35:00
11:54 PM,-14.8,-20.2,77,30.13,10.0,Calm,Calm,-,N/A,,Clear,0,2012-12-10 05:54:00